WD6AWP Weather Reports


Display with metric or nautical units.
time (UTC)temp
F
wind
direction
speed
MPH
gust
MPH
rain 1hr
in
rain 24hr
in
rain mn
in
humidity
%
barometer
mb
20200119131533 40 111 0.0 0.0 0.01 0.01 0.01 95 1018.4
20200119130004 41 111 1.0 2.0 0.01 0.01 0.01 96 1018.4
20200119123352 41 348 0.0 1.0 0.01 0.01 0.01 95 1018.4
20200119121846 41 348 0.0 0.0 0.00 0.00 0.00 95 1018.5
20200119120311 42 348 1.0 2.0 0.00 0.00 0.00 95 1018.6
20200119114846 43 348 0.0 1.0 0.00 0.00 0.00 95 1018.6
20200119113203 43 348 0.0 2.0 0.00 0.00 0.00 95 1018.9
20200119111730 43 350 0.0 2.0 0.00 0.00 0.00 95 1019.1
20200119110142 43 350 0.0 1.0 0.00 0.00 0.00 95 1019.2
20200119104804 43 350 0.0 2.0 0.00 0.00 0.00 95 1019.5
20200119103120 43 350 0.0 1.0 0.00 0.00 0.00 95 1019.6
20200119101720 43 350 0.0 2.0 0.00 0.00 0.00 95 1019.6
20200119100114 43 350 0.0 2.0 0.00 0.00 0.00 95 1019.7
20200119094603 43 350 0.0 1.0 0.00 0.00 0.00 94 1019.9
20200119093048 43 350 0.0 2.0 0.00 0.00 0.00 94 1020.0
20200119091645 44 350 0.0 1.0 0.00 0.00 0.00 94 1020.1
20200119090141 44 350 0.0 2.0 0.00 0.00 0.00 94 1020.4
20200119084552 45 350 1.0 2.0 0.00 0.00 0.00 93 1020.3
20200119083148 45 350 0.0 2.0 0.00 0.00 0.00 94 1020.4
20200119081538 45 350 0.0 2.0 0.00 0.00 0.00 93 1020.7
20200119080023 45 350 0.0 1.0 0.00 0.00 0.00 93 1020.9
20200119074540 45 350 0.0 0.0 0.00 0.00 0.00 92 1021.0
20200119073038 46 350 0.0 1.0 0.00 0.00 0.00 92 1021.1
20200119071538 46 350 0.0 0.0 0.00 0.00 0.00 91 1021.1
20200119070046 46 350 0.0 1.0 0.00 0.00 0.00 91 1021.1
20200119064556 47 350 0.0 0.0 0.00 0.00 0.00 89 1021.0
20200119063103 48 350 0.0 1.0 0.00 0.00 0.00 89 1020.9
20200119061535 48 350 1.0 2.0 0.00 0.00 0.00 89 1020.6
20200119060021 48 350 0.0 2.0 0.00 0.00 0.00 89 1020.7
20200119054548 48 347 0.0 2.0 0.00 0.00 0.00 87 1020.5
20200119053021 49 347 0.0 0.0 0.00 0.00 0.00 86 1020.6
20200119051521 50 347 0.0 0.0 0.00 0.00 0.00 84 1020.5
20200119050028 51 347 0.0 2.0 0.00 0.00 0.00 83 1020.5
20200119044531 51 347 0.0 3.0 0.00 0.00 0.00 81 1020.4
20200119043125 52 347 1.0 4.0 0.00 0.00 0.00 80 1020.3
20200119041549 53 338 0.0 2.0 0.00 0.00 0.00 79 1020.2
20200119040112 53 340 1.0 3.0 0.00 0.00 0.00 81 1020.0
20200119034535 52 340 1.0 3.0 0.00 0.00 0.00 86 1020.0
20200119033021 52 293 2.0 3.0 0.00 0.00 0.00 90 1020.1
20200119031519 52 267 0.0 2.0 0.00 0.00 0.00 91 1020.0
20200119030040 53 266 0.0 0.0 0.00 0.00 0.00 90 1019.9
20200119024539 54 266 0.0 0.0 0.00 0.00 0.00 89 1019.9
20200119023009 55 266 0.0 0.0 0.00 0.00 0.00 88 1019.9
20200119021554 56 266 0.0 0.0 0.00 0.00 0.00 87 1020.0
20200119020035 57 266 0.0 0.0 0.00 0.00 0.00 86 1019.9
20200119014518 58 266 0.0 1.0 0.00 0.00 0.00 85 1019.9
20200119013013 59 266 0.0 1.0 0.00 0.00 0.00 84 1019.9
20200119011509 60 266 1.0 3.0 0.00 0.00 0.00 84 1019.9
20200119010021 61 237 1.0 4.0 0.00 0.00 0.00 82 1019.8
20200119004554 61 271 0.0 3.0 0.00 0.00 0.00 79 1019.8
20200119003006 62 275 2.0 4.0 0.00 0.00 0.00 77 1019.8
20200119001505 62 281 1.0 6.0 0.00 0.00 0.00 76 1019.9
20200119000005 63 275 1.0 4.0 0.00 0.00 0.00 75 1019.9
20200118234503 62 283 3.0 8.0 0.00 0.00 0.00 75 1020.0
20200118233146 63 261 4.0 8.0 0.00 0.00 0.00 71 1020.1
20200118231704 64 272 3.0 8.0 0.00 0.00 0.00 69 1020.3
20200118230324 64 274 6.0 9.0 0.00 0.00 0.00 67 1020.2
20200118224702 64 263 6.0 9.0 0.00 0.00 0.00 67 1020.3
20200118223156 64 285 5.0 10.0 0.00 0.00 0.00 65 1020.4
20200118221652 65 258 3.0 9.0 0.00 0.00 0.00 63 1020.5
20200118220243 64 273 7.0 15.0 0.00 0.00 0.00 63 1020.6
20200118214736 65 236 6.0 11.0 0.00 0.00 0.00 63 1020.7
20200118213233 65 286 8.0 12.0 0.00 0.00 0.00 64 1020.8
20200118211655 65 263 7.0 11.0 0.00 0.00 0.00 64 1020.9
20200118210124 64 272 8.0 11.0 0.00 0.00 0.00 62 1021.1
20200118204659 63 242 3.0 7.0 0.00 0.00 0.00 66 1021.3
20200118203107 62 265 3.0 7.0 0.00 0.00 0.00 67 1021.5
20200118201704 63 240 3.0 7.0 0.00 0.00 0.00 67 1021.6
20200118200107 63 235 5.0 9.0 0.00 0.00 0.00 72 1021.9
20200118194623 62 223 3.0 7.0 0.00 0.00 0.00 73 1022.1
20200118193051 62 252 4.0 9.0 0.00 0.00 0.00 74 1022.6
20200118191648 62 229 4.0 8.0 0.00 0.00 0.00 74 1022.7
20200118190052 63 222 3.0 7.0 0.00 0.00 0.00 72 1022.8
20200118184628 63 218 2.0 4.0 0.00 0.00 0.00 69 1023.0
20200118183041 62 278 2.0 5.0 0.00 0.00 0.00 71 1023.3
20200118181549 61 259 1.0 3.0 0.00 0.00 0.00 70 1023.5
20200118180056 61 173 0.0 3.0 0.00 0.00 0.00 71 1023.6
20200118174641 60 153 0.0 3.0 0.00 0.00 0.00 74 1023.5
20200118173037 58 128 2.0 4.0 0.00 0.00 0.00 78 1023.5
20200118171522 54 68 0.0 3.0 0.00 0.00 0.00 86 1023.4
20200118170014 51 71 1.0 3.0 0.00 0.00 0.00 94 1023.2
20200118164507 49 71 1.0 3.0 0.00 0.00 0.00 97 1023.2
20200118163217 48 73 1.0 3.0 0.00 0.00 0.00 98 1023.3
20200118161730 46 340 0.0 4.0 0.00 0.00 0.00 98 1023.2
20200118160242 46 331 0.0 1.0 0.00 0.00 0.00 98 1023.1
20200118154837 42 331 0.0 1.0 0.00 0.01 0.00 98 1022.9
20200118151508 39 331 0.0 0.0 0.00 0.01 0.00 96 1022.8
20200118150034 39 331 0.0 0.0 0.00 0.01 0.00 96 1022.6
20200118144544 39 331 0.0 2.0 0.00 0.01 0.00 96 1022.5
20200118141505 39 331 0.0 1.0 0.00 0.01 0.00 96 1022.4
20200118140006 39 331 0.0 0.0 0.00 0.01 0.00 96 1022.4
20200118134501 40 331 0.0 0.0 0.00 0.01 0.00 96 1022.0
20200118133319 40 331 0.0 1.0 0.00 0.01 0.00 96 1021.9